COSMOS 2251 DEB, 34610

Orbit data source: Space-Track

COSMOS 2251 DEB, 34610 is space debris in LEO originally from a launch on Wed, 16 Jun 1993 UTC launched from the Plesetsk Missile And Space Complex (PKMTR). The debris from Iridium 33, an American commercial communications satellite, has been tracked extensively since its accidental collision with the defunct Russian satellite Cosmos 2251 in 2009. This event, occurring at high speed in low Earth orbit (LEO), generated thousands of pieces of space debris, significantly increasing the risk of further collisions. The Iridium 33 debris cloud has impacted space traffic management and orbital debris mitigation strategies, making it a subject of ongoing study in space situational awareness.

Loading next visibility...
Identifier
34610, 1993-036WF
Orbit
LEO
Country
Flag of CISCIS
Related business
Manufacturer
Unknown
Mission
Spacecraft
Bus & Motor
Unknown
Mass
Unknown
Launch date (UTC)
1993-06-16 (33 years ago)
Launch vehicle
Unknown
Launch site
Plesetsk Missile And Space Complex (PKMTR)
Object type
Payload
Rocket body
Debris
Shape & HBR
Unknown shape, 0.1 m
Radar Cross Section
Small (<0.1 m²)

Expand to show TLE details & history
Last TLE update: 2 days ago

TLE from 2 days ago
0 COSMOS 2251 DEB
1 34610U 93036WF  26133.01553406  .00001565  00000-0  80606-3 0  9994
2 34610  74.0176 356.8089 0180548  93.4112 268.7696 14.07881471876888
Epoch: 2026-05-13T00:22Z
TLE epoch observation values (Epoch: 2026-05-13T00:22:22.142Z)
Latitude
-0.00003°
Longitude
120.43501°
Altitude
874.376 km
Speed
7.413 km/s
True Right ascension
23h 47m 14s
True Declination
0° 00' 00"
Sunlit
Object was in daylight at epoch
Visualization orbit readout
Latitude
Unknown
Longitude
Unknown
Altitude
Unknown
Speed
Unknown
Apparent Right ascension
Unknown
Apparent Declination
Unknown
Sunlit
N/A
Visualization observer readout
Local Sidereal Time
19:55:53
Azimuth
Unknown
Elevation
Unknown
Doppler factor
Unknown
Orbital elements
Apogee altitude
995.047 km
Perigee altitude
733.526 km
Semi-major axis
7,242.423 km
Eccentricity
0.01805
Inclination
74.0176°
RAAN
356.8089°
Arg. of periapsis
93.4112°
True anomaly
266.7026°
Mean anomaly
268.7696°
Eccentric anomaly
267.73594°
Mean motion
3.52142 °/min
Orbital period
102.23 mins
BSTAR
0.00080606
Loading maneuver chart data...
Computing Atmospheric mass density...

Documentation

Showing up to 5 results
|